Weyers Cave, VA

11:06 PM EST on February 22, 2017 (GMT -0500)
Shenandoah Valley Regional

Weather History for KSHD - April, 2014

Change the Weather History Date:

Wednesday, April 2, 2014

  Actual Average Record
Temperature  
Mean Temperature 54 °F -  
Max Temperature 73 °F 63 °F 80 °F (2003)
Min Temperature 36 °F 38 °F 29 °F (2013)
Degree Days  
Heating Degree Days 10    
Growing Degree Days 4 (Base 50)    
Moisture  
Dew Point 37 °F    
Average Humidity 55    
Maximum Humidity 87    
Minimum Humidity 24    
Precipitation  
Precipitation 0.00 in - - ()
Sea Level Pressure  
Sea Level Pressure 30.06 in    
Wind  
Wind Speed 1 mph (NNE)    
Max Wind Speed 8 mph    
Max Gust Speed -    
Visibility 10 miles    
Events      
Averages and records for this station are not official NWS values.
T = Trace of Precipitation, MM = Missing Value Source: NWS Daily Summary

Daily Weather History Graph

Daily Weather History Graph

Search for Another Location

Airport or City:

Trip Planner

Search our weather history database for the weather conditions in past years. The results will help you decide how hot, cold, wet, or windy it might be!

Date:

Astronomy

Apr. 02, 2014 Rise Set
Actual Time 6:59 AM EDT 7:39 PM EDT
Civil Twilight 6:32 AM EDT 8:06 PM EDT
Nautical Twilight 6:01 AM EDT 8:37 PM EDT
Astronomical Twilight 5:28 AM EDT 9:10 PM EDT
Moon 8:44 AM EDT (4/2) 10:58 PM EDT (4/2)
Length of Visible Light 13h 33m
Length of Day
12h 40m
Waxing Crescent, 10% of the Moon is Illuminated
Apr 2
Waxing Crescent
Apr 7
First Quarter
Apr 15
Full
Apr 22
Last Quarter
Apr 29
New

Hourly Weather History & Observations

Time (EDT) Temp. Windchill Dew Point Humidity Pressure Visibility Wind Dir Wind Speed Gust Speed Precip Events Conditions
12:15 AM 42.8 °F - 36.7 °F 79% 30.04 in 10.0 mi Calm Calm - N/A   Clear
12:35 AM 41.9 °F - 36.1 °F 80% 30.04 in 10.0 mi Calm Calm - N/A   Clear
12:55 AM 40.6 °F - 35.2 °F 81% 30.04 in 10.0 mi Calm Calm - N/A   Clear
1:15 AM 41.2 °F - 35.2 °F 79% 30.04 in 10.0 mi Calm Calm - N/A   Clear
1:35 AM 40.3 °F - 35.4 °F 83% 30.04 in 10.0 mi Calm Calm - N/A   Clear
2:15 AM 39.2 °F - 34.7 °F 84% 30.03 in 10.0 mi Calm Calm - N/A   Clear
2:35 AM 40.6 °F - 36.1 °F 84% 30.03 in 10.0 mi Calm Calm - N/A   Clear
2:55 AM 40.1 °F - 35.4 °F 83% 30.03 in 10.0 mi Calm Calm - N/A   Clear
3:15 AM 40.6 °F - 35.8 °F 83% 30.04 in 10.0 mi Calm Calm - N/A   Clear
3:35 AM 39.9 °F - 35.2 °F 83% 30.03 in 10.0 mi Calm Calm - N/A   Clear
3:55 AM 43.0 °F - 36.7 °F 78% 30.04 in 10.0 mi Calm Calm - N/A   Clear
4:15 AM 39.6 °F - 34.2 °F 81% 30.03 in 10.0 mi Calm Calm - N/A   Clear
4:35 AM 40.1 °F - 35.1 °F 82% 30.03 in 10.0 mi Calm Calm - N/A   Clear
4:55 AM 37.8 °F - 33.3 °F 84% 30.03 in 10.0 mi Calm Calm - N/A   Clear
5:15 AM 37.8 °F 35.3 °F 33.8 °F 86% 30.04 in 10.0 mi NNW 3.5 mph - N/A   Clear
5:35 AM 38.5 °F - 33.4 °F 82% 30.04 in 10.0 mi Calm Calm - N/A   Clear
5:55 AM 37.4 °F - 33.3 °F 85% 30.04 in 10.0 mi Calm Calm - N/A   Clear
6:15 AM 37.6 °F - 34.0 °F 87% 30.05 in 10.0 mi Calm Calm - N/A   Clear
6:35 AM 37.9 °F - 34.0 °F 86% 30.05 in 10.0 mi Calm Calm - N/A   Clear
6:55 AM 36.5 °F - 32.9 °F 87% 30.07 in 10.0 mi Calm Calm - N/A   Clear
7:15 AM 36.3 °F - 32.7 °F 87% 30.08 in 10.0 mi Calm Calm - N/A   Clear
8:35 AM 44.6 °F - 38.5 °F 79% 30.09 in 10.0 mi Calm Calm - N/A   Clear
8:55 AM 47.5 °F - 39.7 °F 75% 30.10 in 10.0 mi Calm Calm - N/A   Clear
9:15 AM 51.3 °F - 40.1 °F 66% 30.11 in 10.0 mi Calm Calm - N/A   Clear
9:35 AM 54.1 °F - 40.5 °F 60% 30.10 in 10.0 mi Calm Calm - N/A   Clear
9:55 AM 55.8 °F - 41.2 °F 58% 30.11 in 10.0 mi Calm Calm - N/A   Clear
10:15 AM 59.0 °F - 40.3 °F 50% 30.10 in 10.0 mi Calm Calm - N/A   Clear
10:35 AM 62.2 °F - 35.8 °F 37% 30.11 in 10.0 mi NNE 4.6 mph - N/A   Clear
10:55 AM 65.5 °F - 32.9 °F 30% 30.11 in 10.0 mi North 6.9 mph - N/A   Clear
11:15 AM 66.4 °F - 35.6 °F 32% 30.12 in 10.0 mi NE 8.1 mph - N/A   Clear
11:35 AM 66.2 °F - 32.5 °F 29% 30.10 in 10.0 mi NNE 4.6 mph - N/A   Clear
11:55 AM 67.6 °F - 30.7 °F 25% 30.10 in 10.0 mi NNE 4.6 mph - N/A   Clear
12:35 PM 66.6 °F - 34.5 °F 31% 30.09 in 10.0 mi NE 5.8 mph - N/A   Clear
12:55 PM 66.6 °F - 32.0 °F 28% 30.09 in 10.0 mi NE 4.6 mph - N/A   Clear
1:15 PM 66.6 °F - 32.2 °F 28% 30.08 in 10.0 mi NNE 5.8 mph - N/A   Clear
1:55 PM 68.0 °F - 32.9 °F 27% 30.08 in 10.0 mi NE 5.8 mph - N/A   Clear
2:15 PM 68.0 °F - 34.3 °F 29% 30.07 in 10.0 mi NE 5.8 mph - N/A   Clear
2:35 PM 68.4 °F - 34.5 °F 29% 30.06 in 10.0 mi ENE 6.9 mph - N/A   Clear
2:55 PM 69.8 °F - 35.8 °F 29% 30.05 in 10.0 mi ENE 5.8 mph - N/A   Clear
3:15 PM 70.7 °F - 34.0 °F 26% 30.05 in 10.0 mi Calm Calm - N/A   Clear
3:35 PM 71.4 °F - 34.9 °F 26% 30.03 in 10.0 mi ENE 5.8 mph - N/A   Clear
3:55 PM 71.8 °F - 35.2 °F 26% 30.03 in 10.0 mi North 5.8 mph - N/A   Clear
4:15 PM 72.3 °F - 36.0 °F 26% 30.03 in 10.0 mi North 4.6 mph - N/A   Clear
4:35 PM 73.0 °F - 36.1 °F 26% 30.03 in 10.0 mi North 3.5 mph - N/A   Scattered Clouds
4:55 PM 73.4 °F - 36.5 °F 26% 30.03 in 10.0 mi Calm Calm - N/A   Mostly Cloudy
5:15 PM 73.0 °F - 34.3 °F 24% 30.03 in 10.0 mi SSE 5.8 mph - N/A   Mostly Cloudy
5:35 PM 72.7 °F - 34.5 °F 25% 30.04 in 10.0 mi Calm Calm - N/A   Mostly Cloudy
5:55 PM 72.7 °F - 35.4 °F 26% 30.04 in 10.0 mi NE 4.6 mph - N/A   Mostly Cloudy
6:15 PM 70.0 °F - 37.8 °F 31% 30.04 in 10.0 mi NNE 6.9 mph - N/A   Scattered Clouds
6:35 PM 68.2 °F - 38.8 °F 34% 30.04 in 10.0 mi NNE 5.8 mph - N/A   Mostly Cloudy
6:55 PM 67.5 °F - 40.5 °F 37% 30.05 in 10.0 mi NNE 4.6 mph - N/A   Overcast
7:15 PM 64.6 °F - 41.0 °F 42% 30.05 in 10.0 mi Calm Calm - N/A   Mostly Cloudy
7:35 PM 62.4 °F - 41.4 °F 46% 30.05 in 10.0 mi Calm Calm - N/A   Scattered Clouds
7:55 PM 62.6 °F - 39.7 °F 43% 30.05 in 10.0 mi Calm Calm - N/A   Clear
8:15 PM 60.1 °F - 41.9 °F 51% 30.05 in 10.0 mi Calm Calm - N/A   Clear
8:35 PM 57.6 °F - 41.9 °F 56% 30.06 in 10.0 mi Calm Calm - N/A   Clear
8:55 PM 57.2 °F - 40.3 °F 53% 30.07 in 10.0 mi Calm Calm - N/A   Scattered Clouds
9:15 PM 58.3 °F - 40.1 °F 51% 30.09 in 10.0 mi NNW 5.8 mph - N/A   Mostly Cloudy
9:35 PM 59.7 °F - 39.9 °F 48% 30.09 in 10.0 mi Calm Calm - N/A   Overcast
9:55 PM 58.5 °F - 40.5 °F 51% 30.10 in 10.0 mi Calm Calm - N/A   Overcast
10:15 PM 56.1 °F - 41.4 °F 58% 30.10 in 10.0 mi Calm Calm - N/A   Overcast
10:35 PM 55.2 °F - 41.5 °F 60% 30.10 in 10.0 mi Calm Calm - N/A   Mostly Cloudy
10:55 PM 53.2 °F - 41.2 °F 64% 30.09 in 10.0 mi Calm Calm - N/A   Mostly Cloudy
11:15 PM 52.5 °F - 41.0 °F 65% 30.08 in 10.0 mi Calm Calm - N/A   Scattered Clouds
11:35 PM 53.8 °F - 40.6 °F 61% 30.09 in 10.0 mi Calm Calm - N/A   Mostly Cloudy
11:55 PM 55.4 °F - 42.1 °F 61% 30.10 in 10.0 mi NE 4.6 mph - N/A   Light Drizzle